Location: Handeloh
(53.2500°N, 9.8330°E)
Time: 21:27:01
(UTC+01:00)

S-56A Canister/Altair - Pass Details

Date: 20 November 2019
Orbit: 633 x 2499 km, 38.9° (Epoch: 04 December)

Event Time Altitude Azimuth Distance (km) Brightness Sun altitude
Rises 17:53:51 0° 235° (SW) 5,112 13.1 -13.9°
Reaches altitude 10° 17:58:19 10° 224° (SW) 3,774 12.0 -14.5°
Maximum altitude 18:05:20 25° 175° (S) 2,259 10.0 -15.6°
Enters shadow 18:10:20 11° 124° (SE) 2,681 9.9 -16.3°
Drops below altitude 10° 18:10:36 10° 122° (ESE) 2,740 - -16.3°
Sets 18:13:16 0° 109° (ESE) 3,472 - -16.7°
